ZHONGXING-9

Last updated on Thu Jul 03 2025 00:02:45 GMT+0000 (Coordinated Universal Time)

1 33051U 08028A 25183.62597470 -.00000239 00000+0 00000+0 0 9992 2 33051 0.0125 19.5552 0004765 104.7314 114.1589 1.00267434 62533
UTC large
Height (km)
Speed (km/s)
/
Latitude / Longitude
Inclination (degrees)
Orbital Period (minutes)
Azimuth
Elevation
Range (km)
Doppler Factor

Next 0 passes for location: London (51.5072 / 0.1276)

Sorry there are no passes over London.